SATCOM K2 R/B(PAM-D2), 16295

Orbit data source: Space-Track

SATCOM K2 R/B(PAM-D2), 16295 is space debris in HEO originally from a launch on Wed, 27 Nov 1985 UTC launched from the Air Force Eastern Test Range (AFETR). Debris objects in space refer to the collection of defunct objects orbiting the Earth. Examples of debris include non-operational satellites, rocket bodies, and fragments generated from explosions, collisions, or faulty payload assembly.

Loading next visibility...
Identifier
16295, 1985-109H
Orbit
HEO
Last TLE update
20 hours ago
Origin
Manufacturer
Thiokol/UT
Mission
Spacecraft
Bus & Motor
STAR 63, Unknown motor
Mass
230 kg wet, 230 kg dry
Launch date (UTC)
1985-11-27 (40 years ago)
Launch vehicle
Unknown
Launch site
Air Force Eastern Test Range (AFETR)
Object type
Payload
Rocket body
Debris
Shape & HBR
Cone + Cyl, 1.8 m
Radar Cross Section
3.267 m², Large (>1 m²)

Expand to show TLE details & history

TLE from 20 hours ago
0 SATCOM K2 R/B(PAM-D2)
1 16295U 85109H   25183.67825903  .00000189  00000-0  57365-3 0  9992
2 16295  26.0371 141.8120 7096788  43.8844 354.1927  2.42005841267380
Epoch: 2025-07-02T16:16Z
TLE epoch observation values (Epoch: 2025-07-02T16:16:41.58Z)
Latitude
0.00009°
Longitude
-23.39075°
Altitude
1,330.745 km
Speed
9.295 km/s
True Right ascension
09h 26m 57s
True Declination
0° 00' 00"
Sunlit
Object was in daylight at epoch
Visualization orbit readout
Latitude
-12.25777°
Longitude
-50.03706°
Altitude
3,297.756 km
Speed
8.086 km/s
Apparent Right ascension
08h 59m 55s
Apparent Declination
-25° 54' 59"
Sunlit
Object is in daylight
Visualization observer readout
Local Sidereal Time
23:44:05
Azimuth
80.385° E
Elevation
-53.199°
Doppler factor
1
Orbital elements
Apogee altitude
33,693.482 km
Perigee altitude
426.44 km
Semi-major axis
23,438.098 km
Eccentricity
0.70968
Inclination
26.0371°
RAAN
141.812°
Arg. of periapsis
43.8844°
True anomaly
Unknown
Mean anomaly
354.1927°
Eccentric anomaly
Unknown
Mean motion
0.60487 °/min
Orbital period
595.17 mins
BSTAR
0.00057365
Loading maneuver chart data...
Loading SW <> Apogee altitude chart data...
Loading historical data...
Loading historical data...
Loading historical data...
Loading historical data...
Loading historical data...
Loading historical data...
Loading historical data...

SATCOM K2 R/B(PAM-D2) Visibility forecast

Observer location: undefined°, undefined°

Span
Click to sort rows by Start time (UTC) header in descending order
Start Az.
Max El. time (UTC)
Max El. Az.
Max El.
End time (UTC)
End Az.
212 mins2025-07-04 08:25:30.913Z255.31° W2025-07-04 08:53:30.913Z195.288° SSW33.339°2025-07-04 11:57:30.913Z184.25° SSW
|